TimeCDT,TemperatureF,Dew PointF,Humidity,Sea Level PressureIn,VisibilityMPH,Wind Direction,Wind SpeedMPH,Gust SpeedMPH,PrecipitationIn,Events,Conditions,WindDirDegrees,DateUTC
12:15 AM,51.8,50.5,95,29.69,10.0,ENE,3.5,-,N/A,,Clear,70,2013-05-22 05:15:00
12:35 AM,52.7,51.3,95,29.69,10.0,Calm,Calm,-,N/A,,Mostly Cloudy,0,2013-05-22 05:35:00
12:55 AM,53.6,52.3,95,29.69,10.0,Calm,Calm,-,N/A,,Overcast,0,2013-05-22 05:55:00
1:15 AM,54.0,52.7,95,29.69,10.0,Calm,Calm,-,N/A,,Overcast,0,2013-05-22 06:15:00
1:35 AM,54.0,52.5,95,29.69,10.0,Calm,Calm,-,N/A,,Overcast,0,2013-05-22 06:35:00
1:55 AM,52.7,51.4,95,29.68,10.0,Calm,Calm,-,N/A,,Overcast,0,2013-05-22 06:55:00
2:15 AM,53.8,52.7,96,29.68,10.0,Calm,Calm,-,N/A,,Overcast,0,2013-05-22 07:15:00
2:35 AM,54.0,52.7,95,29.67,10.0,Calm,Calm,-,N/A,,Overcast,0,2013-05-22 07:35:00
2:55 AM,54.1,52.3,94,29.67,10.0,Calm,Calm,-,N/A,,Overcast,0,2013-05-22 07:55:00
3:15 AM,53.8,52.3,95,29.67,10.0,Calm,Calm,-,N/A,,Overcast,0,2013-05-22 08:15:00
3:35 AM,53.6,52.3,95,29.67,10.0,Calm,Calm,-,N/A,,Overcast,0,2013-05-22 08:35:00
3:55 AM,53.8,52.7,96,29.67,10.0,Calm,Calm,-,N/A,,Overcast,0,2013-05-22 08:55:00
4:15 AM,53.8,52.7,96,29.67,10.0,Calm,Calm,-,N/A,,Overcast,0,2013-05-22 09:15:00
4:35 AM,54.0,52.7,95,29.67,10.0,Calm,Calm,-,N/A,,Overcast,0,2013-05-22 09:35:00
4:55 AM,54.3,52.9,95,29.67,10.0,Calm,Calm,-,N/A,,Overcast,0,2013-05-22 09:55:00
5:15 AM,54.1,52.9,95,29.67,10.0,Calm,Calm,-,N/A,,Overcast,0,2013-05-22 10:15:00
5:35 AM,54.1,52.7,95,29.67,10.0,Calm,Calm,-,N/A,,Overcast,0,2013-05-22 10:35:00
6:15 AM,55.2,53.6,94,29.67,10.0,Calm,Calm,-,N/A,,Overcast,0,2013-05-22 11:15:00
6:35 AM,55.8,54.3,95,29.67,10.0,Calm,Calm,-,N/A,,Overcast,0,2013-05-22 11:35:00
6:55 AM,55.9,54.3,94,29.67,10.0,Calm,Calm,-,N/A,,Overcast,0,2013-05-22 11:55:00
7:15 AM,55.8,54.0,94,29.66,10.0,Calm,Calm,-,N/A,,Overcast,0,2013-05-22 12:15:00
7:35 AM,56.7,54.9,94,29.66,10.0,Calm,Calm,-,N/A,,Overcast,0,2013-05-22 12:35:00
7:55 AM,57.2,54.9,92,29.66,10.0,Calm,Calm,-,N/A,,Overcast,0,2013-05-22 12:55:00
8:15 AM,57.9,55.6,92,29.66,10.0,Calm,Calm,-,N/A,,Overcast,0,2013-05-22 13:15:00
8:35 AM,58.1,55.6,91,29.66,10.0,Calm,Calm,-,N/A,,Overcast,0,2013-05-22 13:35:00
8:55 AM,58.8,55.8,90,29.67,10.0,North,3.5,-,N/A,,Overcast,10,2013-05-22 13:55:00
9:15 AM,59.0,55.8,89,29.67,10.0,Calm,Calm,-,N/A,,Overcast,0,2013-05-22 14:15:00
9:35 AM,59.4,55.9,88,29.67,10.0,Calm,Calm,-,N/A,,Overcast,0,2013-05-22 14:35:00
9:55 AM,59.2,56.3,90,29.67,7.0,Calm,Calm,-,N/A,Rain,Rain,0,2013-05-22 14:55:00
10:15 AM,59.0,56.7,92,29.68,4.0,Calm,Calm,-,N/A,Rain,Rain,0,2013-05-22 15:15:00
10:35 AM,58.3,57.0,96,29.68,2.0,NE,3.5,-,0.20,Rain,Heavy Rain,50,2013-05-22 15:35:00
10:55 AM,58.1,56.7,95,29.68,1.5,North,3.5,-,0.36,Rain,Heavy Rain,360,2013-05-22 15:55:00
11:15 AM,57.7,56.7,96,29.69,1.8,NNW,4.6,-,0.18,Rain,Heavy Rain,340,2013-05-22 16:15:00
11:35 AM,57.6,56.5,96,29.68,2.5,NNE,9.2,-,0.31,Rain,Rain,20,2013-05-22 16:35:00
11:55 AM,57.4,56.3,96,29.68,5.0,North,4.6,-,0.33,Rain,Heavy Rain,350,2013-05-22 16:55:00
12:15 PM,57.4,55.9,95,29.68,3.0,Calm,Calm,-,0.04,Rain,Rain,0,2013-05-22 17:15:00
12:35 PM,57.6,56.3,96,29.69,4.0,WSW,5.8,-,0.08,Rain,Heavy Rain,250,2013-05-22 17:35:00
12:55 PM,57.4,56.3,96,29.69,4.0,West,5.8,-,0.16,Rain,Rain,280,2013-05-22 17:55:00
1:15 PM,57.7,56.7,96,29.69,5.0,North,8.1,-,0.02,Rain,Rain,10,2013-05-22 18:15:00
1:35 PM,57.9,56.7,96,29.68,7.0,NNE,8.1,-,0.05,Rain,Rain,20,2013-05-22 18:35:00
1:55 PM,58.1,56.5,94,29.69,7.0,North,6.9,-,0.07,Rain,Rain,10,2013-05-22 18:55:00
2:15 PM,57.7,55.9,94,29.68,10.0,NNE,12.7,17.3,0.01,Rain,Rain,30,2013-05-22 19:15:00
2:35 PM,58.1,56.3,94,29.68,7.0,North,12.7,17.3,0.03,Rain,Rain,10,2013-05-22 19:35:00
2:55 PM,58.3,56.3,93,29.69,10.0,North,5.8,-,0.04,Rain,Light Rain,360,2013-05-22 19:55:00
3:15 PM,58.5,56.1,92,29.70,10.0,NE,5.8,-,N/A,Rain,Light Rain,40,2013-05-22 20:15:00
3:35 PM,58.3,56.3,93,29.70,10.0,North,4.6,-,N/A,Rain,Light Rain,360,2013-05-22 20:35:00
3:55 PM,58.3,56.3,93,29.70,10.0,North,4.6,-,N/A,Rain,Light Rain,360,2013-05-22 20:55:00
4:15 PM,58.3,56.5,94,29.70,10.0,North,6.9,-,N/A,,Drizzle,360,2013-05-22 21:15:00
4:35 PM,58.3,56.5,94,29.70,10.0,North,6.9,-,N/A,Rain,Rain,360,2013-05-22 21:35:00
4:55 PM,58.5,56.7,94,29.70,10.0,North,8.1,-,N/A,Rain,Light Rain,10,2013-05-22 21:55:00
5:15 PM,58.3,56.7,94,29.70,7.0,North,5.8,-,N/A,Rain,Rain,10,2013-05-22 22:15:00
5:35 PM,58.5,57.0,95,29.71,7.0,NNE,10.4,-,N/A,,Drizzle,20,2013-05-22 22:35:00
5:55 PM,58.3,56.7,94,29.72,5.0,NNE,8.1,-,0.02,Rain,Rain,20,2013-05-22 22:55:00
6:15 PM,58.1,56.7,95,29.72,3.0,North,8.1,-,0.11,Rain,Heavy Rain,10,2013-05-22 23:15:00
6:35 PM,58.1,56.7,95,29.72,5.0,NNE,5.8,-,0.16,Rain,Rain,30,2013-05-22 23:35:00
6:55 PM,57.9,56.3,94,29.73,5.0,NNE,11.5,16.1,0.22,Rain,Rain,20,2013-05-22 23:55:00
7:15 PM,57.4,55.9,95,29.74,10.0,North,8.1,-,N/A,Rain,Light Rain,10,2013-05-23 00:15:00
7:35 PM,57.2,55.6,94,29.75,10.0,NNE,10.4,-,0.02,Rain,Light Rain,20,2013-05-23 00:35:00
7:55 PM,56.7,55.4,96,29.75,10.0,North,9.2,-,0.02,Rain,Light Rain,10,2013-05-23 00:55:00
8:15 PM,56.3,54.9,95,29.76,10.0,North,8.1,-,0.01,Rain,Light Rain,10,2013-05-23 01:15:00
8:35 PM,55.8,54.5,96,29.77,7.0,NNE,11.5,-,0.01,Rain,Light Rain,20,2013-05-23 01:35:00
8:55 PM,55.4,53.8,94,29.78,7.0,North,10.4,-,0.02,Rain,Light Rain,10,2013-05-23 01:55:00
9:15 PM,55.2,53.6,94,29.79,10.0,NNE,10.4,-,0.01,Rain,Light Rain,20,2013-05-23 02:15:00
9:35 PM,54.5,52.9,94,29.81,10.0,North,8.1,-,0.01,Rain,Light Rain,10,2013-05-23 02:35:00
9:55 PM,54.0,52.5,95,29.82,5.0,NNE,10.4,16.1,0.05,Rain,Rain,20,2013-05-23 02:55:00
10:15 PM,53.1,51.4,94,29.83,7.0,NNE,10.4,17.3,0.02,Rain,Light Rain,20,2013-05-23 03:15:00
10:35 PM,52.9,51.3,94,29.85,10.0,NNE,9.2,-,0.03,Rain,Rain,30,2013-05-23 03:35:00
10:55 PM,52.7,50.9,94,29.85,7.0,NNE,8.1,-,0.04,,Drizzle,20,2013-05-23 03:55:00
11:15 PM,52.0,50.7,95,29.86,7.0,NNE,5.8,-,0.02,Rain,Rain,20,2013-05-23 04:15:00
11:35 PM,51.8,50.4,95,29.87,10.0,NNE,10.4,-,0.03,Rain,Light Rain,30,2013-05-23 04:35:00
11:55 PM,51.8,49.6,92,29.88,10.0,NNE,8.1,-,0.04,,Drizzle,30,2013-05-23 04:55:00